Location: Marseilles
(40.7010°N, 83.3930°W)
Time: 21:22:46
(UTC-04:00)

Cosmos 1459 Rocket - Visible Passes

Search period start: 29 August 2016 00:00
Search period end: 08 September 2016 00:00
Orbit: 937 x 1000 km, 83.0° (Epoch: 29 August)

Date Brightness Start Highest point End Pass type
(mag) Time Alt. Az. Time Alt. Az. Time Alt. Az.
29 Aug 4.3 22:08:38 10° SSW 22:14:36 63° W 22:20:41 10° N visible
30 Aug 4.6 20:47:51 10° SSE 20:53:05 32° E 20:58:23 10° NNE visible
30 Aug 5.3 22:32:41 10° SW 22:38:11 36° WNW 22:43:47 10° N visible
31 Aug 4.0 21:10:23 10° SSE 21:16:16 57° E 21:22:15 10° NNE visible
31 Aug 6.2 22:57:29 10° WSW 23:01:56 21° WNW 23:06:26 10° NNW visible
01 Sep 4.0 21:33:34 10° S 21:39:37 82° W 21:45:48 10° N visible
01 Sep 6.8 23:23:55 10° W 23:25:52 12° WNW 23:27:51 10° NW visible
02 Sep 4.9 21:57:19 10° SSW 22:03:07 47° WNW 22:09:03 10° N visible
03 Sep 4.3 20:35:44 10° SSE 20:41:24 43° E 20:47:09 10° NNE visible
03 Sep 5.9 22:21:44 10° SW 22:26:48 27° WNW 22:31:56 10° NNW visible
04 Sep 3.9 20:58:38 10° S 21:04:40 77° E 21:10:50 10° N visible
04 Sep 6.7 22:47:08 10° WSW 22:50:38 16° WNW 22:54:11 10° NNW visible
05 Sep 4.5 21:22:06 10° SSW 21:28:06 62° W 21:34:13 10° N visible
06 Sep 7.1 06:33:49 10° NNE 06:37:37 16° ENE 06:41:26 10° ESE visible
06 Sep 5.5 21:46:11 10° SW 21:51:42 35° WNW 21:57:18 10° N visible
07 Sep 4.0 20:23:49 10° S 20:29:45 59° E 20:35:49 10° NNE visible
07 Sep 6.4 22:11:02 10° WSW 22:15:27 20° WNW 22:19:56 10° NNW visible
